Location: Newark
(10.2350°N, 77.4860°E)
Time: 06:40:23
(UTC+00:00)

N. Korean satellite - Visible Passes

Search period start: 19 October 2019 00:00
Search period end: 29 October 2019 00:00
Orbit: 455 x 508 km, 97.2° (Epoch: 18 October)

Date Brightness Start Highest point End Pass type
(mag) Time Alt. Az. Time Alt. Az. Time Alt. Az.
20 Oct 7.6 00:15:03 10° NNE 00:18:38 53° E 00:22:15 10° S visible
20 Oct 9.7 23:50:35 10° NE 23:53:23 21° E 23:56:12 10° SSE visible
22 Oct 9.5 12:51:20 10° SSW 12:54:02 22° W 12:56:44 10° NW visible
24 Oct 8.3 00:07:22 10° NNE 00:10:50 39° E 00:14:20 10° S visible
24 Oct 10.1 23:43:15 10° ENE 23:45:34 16° E 23:47:54 10° SE visible
25 Oct 10.4 13:10:18 10° WSW 13:11:28 11° W 13:12:36 10° W visible
26 Oct 8.9 12:43:09 10° SSW 12:46:09 29° W 12:49:10 10° NW visible
27 Oct 9.0 23:59:44 10° NE 00:03:00 29° E 00:06:17 10° SSE visible
28 Oct 10.3 23:36:11 10° ENE 23:37:43 12° E 23:39:15 10° ESE visible
